FW3916 Weather Reports


time (UTC)temp
C
wind
direction
speed
KPH
gust
KPH
rain 1hr
cm
rain 24hr
cm
rain mn
cm
humidity
%
barometer
mb
20260507203056 18 0 1.6 6.4 0.00 0.00 0.00 29 1014.0
20260507202545 18 205 3.2 16.1 0.00 0.00 0.00 26 1014.1
20260507202043 18 311 1.6 16.1 0.00 0.00 0.00 31 1014.2
20260507201555 17 248 1.6 8.0 0.00 0.00 0.00 28 1014.1
20260507201043 17 0 1.6 6.4 0.00 0.00 0.00 32 1014.3
20260507200544 17 269 0.0 6.4 0.00 0.00 0.00 27 1014.4
20260507200052 17 316 0.0 8.0 0.00 0.00 0.00 29 1014.4
20260507195540 18 0 1.6 8.0 0.00 0.00 0.00 29 1014.5
20260507195043 18 260 1.6 9.7 0.00 0.00 0.00 29 1014.5
20260507194556 18 143 3.2 9.7 0.00 0.00 0.00 28 1014.7
20260507194043 18 13 1.6 8.0 0.00 0.00 0.00 29 1014.7
20260507193543 18 31 1.6 8.0 0.00 0.00 0.00 26 1014.6
20260507193052 18 10 1.6 8.0 0.00 0.00 0.00 30 1014.7
20260507192543 17 235 1.6 6.4 0.00 0.00 0.00 28 1014.5
20260507192043 17 1 1.6 4.8 0.00 0.00 0.00 30 1014.7
20260507191556 17 23 0.0 4.8 0.00 0.00 0.00 32 1014.9
20260507191043 17 353 1.6 6.4 0.00 0.00 0.00 27 1015.0
20260507190544 17 108 1.6 6.4 0.00 0.00 0.00 27 1015.1
20260507190055 18 18 1.6 4.8 0.00 0.00 0.00 27 1015.1
20260507185543 18 19 1.6 4.8 0.00 0.00 0.00 31 1015.2
20260507185041 17 247 1.6 8.0 0.00 0.00 0.00 33 1015.2
20260507184549 17 319 1.6 8.0 0.00 0.00 0.00 27 1015.2
20260507184044 17 283 1.6 9.7 0.00 0.00 0.00 26 1015.1
20260507183540 17 263 3.2 11.3 0.00 0.00 0.00 27 1015.0
20260507183055 16 26 4.8 11.3 0.00 0.00 0.00 27 1015.0
20260507182543 16 288 1.6 9.7 0.00 0.00 0.00 34 1015.1
20260507182044 16 291 3.2 9.7 0.00 0.00 0.00 28 1015.1
20260507181548 16 275 1.6 9.7 0.00 0.00 0.00 33 1015.1
20260507181043 16 23 1.6 9.7 0.00 0.00 0.00 28 1015.3
20260507180547 17 20 3.2 6.4 0.00 0.00 0.00 29 1015.3
20260507180057 17 41 1.6 6.4 0.00 0.00 0.00 33 1015.3
20260507175544 16 277 1.6 6.4 0.00 0.00 0.00 34 1015.4
20260507175042 16 27 1.6 6.4 0.00 0.00 0.00 31 1015.5
20260507174554 16 288 0.0 9.7 0.00 0.00 0.00 29 1015.4
20260507174043 16 173 1.6 9.7 0.00 0.00 0.00 30 1015.4
20260507173544 16 272 1.6 11.3 0.00 0.00 0.00 29 1015.7
20260507173101 16 304 3.2 11.3 0.00 0.00 0.00 32 1015.8
20260507172548 16 241 1.6 8.0 0.00 0.00 0.00 33 1015.7
20260507172045 15 117 3.2 8.0 0.00 0.00 0.00 30 1015.7
20260507171555 15 183 1.6 8.0 0.00 0.00 0.00 30 1015.8
20260507171043 15 58 1.6 8.0 0.00 0.00 0.00 38 1015.8
20260507170543 16 253 3.2 8.0 0.00 0.00 0.00 27 1016.0
20260507170055 16 0 1.6 11.3 0.00 0.00 0.00 35 1016.0
20260507165543 15 284 3.2 11.3 0.00 0.00 0.00 32 1016.1
20260507165043 15 252 3.2 6.4 0.00 0.00 0.00 36 1016.2
20260507164551 16 265 1.6 6.4 0.00 0.00 0.00 34 1016.3
20260507164043 15 40 1.6 8.0 0.00 0.00 0.00 35 1016.3
20260507163543 15 286 1.6 8.0 0.00 0.00 0.00 35 1016.5
20260507163058 15 349 1.6 8.0 0.00 0.00 0.00 32 1016.4
20260507162545 15 248 3.2 8.0 0.00 0.00 0.00 30 1016.3
20260507162043 15 323 1.6 4.8 0.00 0.00 0.00 35 1016.2
20260507161555 15 14 1.6 6.4 0.00 0.00 0.00 34 1016.3
20260507161043 15 260 1.6 6.4 0.00 0.00 0.00 32 1016.3
20260507160544 15 8 1.6 6.4 0.00 0.00 0.00 32 1016.5
20260507160053 15 0 1.6 6.4 0.00 0.00 0.00 34 1016.6
20260507155543 15 10 1.6 6.4 0.00 0.00 0.00 38 1016.6
20260507155046 15 278 3.2 6.4 0.00 0.00 0.00 33 1016.6
20260507154554 15 289 1.6 6.4 0.00 0.00 0.00 35 1016.6
20260507154044 15 65 1.6 6.4 0.00 0.00 0.00 35 1016.7
20260507153543 15 31 1.6 6.4 0.00 0.00 0.00 36 1016.6
20260507153102 15 223 1.6 6.4 0.00 0.00 0.00 36 1016.7
20260507152543 15 0 1.6 6.4 0.00 0.00 0.00 35 1016.7
20260507152044 15 40 3.2 6.4 0.00 0.00 0.00 34 1016.7
20260507151548 14 279 1.6 6.4 0.00 0.00 0.00 37 1016.6
20260507151043 14 7 1.6 6.4 0.00 0.00 0.00 35 1016.7
20260507150544 13 10 1.6 6.4 0.00 0.00 0.00 36 1016.8
20260507150105 13 28 1.6 4.8 0.00 0.00 0.00 36 1016.7
20260507145545 13 249 0.0 4.8 0.00 0.00 0.00 35 1016.7
20260507145043 13 332 0.0 6.4 0.00 0.00 0.00 37 1016.6
20260507144552 13 285 1.6 6.4 0.00 0.00 0.00 34 1016.7
20260507144043 13 258 1.6 6.4 0.00 0.00 0.00 34 1016.7
20260507143543 13 17 0.0 4.8 0.00 0.00 0.00 40 1016.6
20260507143103 13 281 0.0 6.4 0.00 0.00 0.00 38 1016.6
20260507142543 12 0 1.6 6.4 0.00 0.00 0.00 40 1016.7
20260507142043 12 339 1.6 6.4 0.00 0.00 0.00 39 1016.6
20260507141551 12 243 0.0 6.4 0.00 0.00 0.00 38 1016.6
20260507141043 12 269 0.0 4.8 0.00 0.00 0.00 40 1016.6
20260507140546 12 20 0.0 4.8 0.00 0.00 0.00 42 1016.6
20260507140056 11 0 0.0 4.8 0.00 0.00 0.00 46 1016.6
20260507135548 11 0 0.0 4.8 0.00 0.00 0.00 56 1016.6
20260507135043 10 0 0.0 4.8 0.00 0.00 0.00 59 1016.6
20260507134550 10 217 1.6 4.8 0.00 0.00 0.00 58 1016.6
20260507134042 8 0 0.0 3.2 0.00 0.00 0.00 65 1016.6
20260507133544 8 0 0.0 3.2 0.00 0.00 0.00 69 1016.7
20260507133057 7 0 0.0 3.2 0.00 0.00 0.00 79 1016.7
20260507132543 6 0 0.0 3.2 0.00 0.00 0.00 85 1016.7
20260507132046 6 0 0.0 1.6 0.00 0.00 0.00 90 1016.6
20260507131554 6 250 0.0 1.6 0.00 0.00 0.00 94 1016.7
20260507131041 6 0 0.0 1.6 0.00 0.00 0.00 95 1016.7
20260507130543 5 0 0.0 1.6 0.00 0.00 0.00 97 1016.6
20260507125542 5 0 0.0 0.0 0.00 0.00 0.00 97 1016.6
20260507125043 5 0 0.0 1.6 0.00 0.00 0.00 97 1016.6
20260507124600 4 0 0.0 1.6 0.00 0.00 0.00 98 1016.6
20260507124043 4 0 0.0 3.2 0.00 0.00 0.00 98 1016.6
20260507123543 4 250 0.0 3.2 0.00 0.00 0.00 98 1016.7
20260507123049 3 250 1.6 3.2 0.00 0.00 0.00 98 1016.7
20260507122542 3 0 0.0 1.6 0.00 0.00 0.00 98 1016.6
20260507122044 3 0 0.0 1.6 0.00 0.00 0.00 98 1016.4
20260507121601 3 0 0.0 1.6 0.00 0.00 0.00 98 1016.4
20260507121040 2 0 0.0 0.0 0.00 0.00 0.00 98 1016.4
20260507120540 2 0 0.0 0.0 0.00 0.00 0.00 98 1016.2
20260507120056 2 0 0.0 0.0 0.00 0.00 0.00 98 1016.3
20260507115544 2 0 0.0 0.0 0.00 0.00 0.00 98 1016.3
20260507115039 2 0 0.0 0.0 0.00 0.00 0.00 98 1016.3
20260507114551 1 0 0.0 0.0 0.00 0.00 0.00 98 1016.3
20260507114042 1 0 0.0 0.0 0.00 0.00 0.00 97 1016.2
20260507113542 1 0 0.0 0.0 0.00 0.00 0.00 97 1016.2
20260507113052 1 0 0.0 0.0 0.00 0.00 0.00 97 1016.2
20260507112544 1 0 0.0 0.0 0.00 0.00 0.00 96 1016.2
20260507112047 1 0 0.0 0.0 0.00 0.00 0.00 96 1016.0
20260507111551 1 0 0.0 0.0 0.00 0.00 0.00 96 1015.9
20260507111045 1 0 0.0 0.0 0.00 0.00 0.00 96 1015.9
20260507110543 1 0 0.0 0.0 0.00 0.00 0.00 96 1016.0
20260507110059 1 0 0.0 0.0 0.00 0.00 0.00 96 1016.1
20260507105542 1 0 0.0 0.0 0.00 0.00 0.00 96 1016.1
20260507105043 1 0 0.0 0.0 0.00 0.00 0.00 96 1015.9
20260507104600 1 0 0.0 0.0 0.00 0.00 0.00 96 1015.9
20260507104046 1 0 0.0 0.0 0.00 0.00 0.00 96 1015.8
20260507103544 1 0 0.0 0.0 0.00 0.00 0.00 96 1016.1
20260507103115 1 0 0.0 0.0 0.00 0.00 0.00 96 1016.1
20260507102540 1 0 0.0 0.0 0.00 0.00 0.00 96 1016.0
20260507102040 1 0 0.0 0.0 0.00 0.00 0.00 96 1016.1
20260507101553 1 0 0.0 0.0 0.00 0.00 0.00 96 1016.1
20260507101039 1 0 0.0 0.0 0.00 0.00 0.00 96 1016.0
20260507100539 2 0 0.0 0.0 0.00 0.00 0.00 96 1016.1
20260507100106 2 0 0.0 0.0 0.00 0.00 0.00 96 1016.0
20260507095545 2 0 0.0 0.0 0.00 0.00 0.00 96 1016.0
20260507095043 2 0 0.0 0.0 0.00 0.00 0.00 96 1015.9
20260507094550 2 0 0.0 0.0 0.00 0.00 0.00 96 1015.9
20260507094045 2 0 0.0 0.0 0.00 0.00 0.00 96 1016.0
20260507093545 2 0 0.0 0.0 0.00 0.00 0.00 96 1015.9
20260507093056 2 0 0.0 0.0 0.00 0.00 0.00 96 1015.8
20260507092545 2 0 0.0 0.0 0.00 0.00 0.00 96 1015.8
20260507092045 2 0 0.0 0.0 0.00 0.00 0.00 96 1015.7
20260507091550 2 0 0.0 0.0 0.00 0.00 0.00 96 1015.9
20260507091046 2 0 0.0 0.0 0.00 0.00 0.00 96 1015.8
20260507090545 2 0 0.0 0.0 0.00 0.00 0.00 96 1015.9
20260507090055 2 0 0.0 0.0 0.00 0.00 0.00 96 1015.8
20260507085545 2 0 0.0 0.0 0.00 0.03 0.00 96 1015.9
20260507085045 2 0 0.0 0.0 0.00 0.03 0.00 96 1015.9
20260507084558 2 0 0.0 0.0 0.00 0.03 0.00 96 1016.0
20260507084042 2 0 0.0 0.0 0.00 0.03 0.00 96 1015.9
20260507083545 2 0 0.0 0.0 0.00 0.03 0.00 96 1015.9
20260507083052 2 0 0.0 0.0 0.00 0.03 0.00 96 1015.8
20260507082544 2 0 0.0 0.0 0.00 0.03 0.00 96 1015.7
20260507082044 2 0 0.0 0.0 0.00 0.03 0.00 96 1015.8
20260507081555 2 0 0.0 0.0 0.00 0.03 0.00 96 1015.6
20260507081044 2 0 0.0 0.0 0.00 0.03 0.00 96 1015.6
20260507080547 2 0 0.0 0.0 0.00 0.03 0.00 96 1015.7
20260507080054 2 0 0.0 0.0 0.00 0.03 0.00 96 1015.7
20260507075544 3 0 0.0 0.0 0.00 0.05 0.00 96 1015.6
20260507075044 3 0 0.0 0.0 0.00 0.05 0.00 95 1015.6
20260507074552 3 0 0.0 0.0 0.00 0.05 0.00 95 1015.6
20260507074044 3 0 0.0 0.0 0.00 0.05 0.00 95 1015.6
20260507073544 3 0 0.0 0.0 0.00 0.05 0.00 95 1015.6
20260507073052 3 0 0.0 0.0 0.00 0.05 0.00 95 1015.5
20260507072544 3 0 0.0 0.0 0.00 0.05 0.00 95 1015.6
20260507072043 3 0 0.0 0.0 0.00 0.05 0.00 95 1015.6
20260507071550 3 0 0.0 0.0 0.00 0.05 0.00 95 1015.6
20260507071044 3 0 0.0 0.0 0.00 0.05 0.00 95 1015.8
20260507070545 3 0 0.0 0.0 0.00 0.05 0.00 95 1015.6
20260507070106 3 0 0.0 0.0 0.00 0.05 0.00 95 1015.6
20260507065544 3 0 0.0 0.0 0.00 0.20 0.00 95 1015.8
20260507065044 3 0 0.0 0.0 0.00 0.20 0.00 95 1015.8
20260507064556 3 0 0.0 0.0 0.00 0.20 0.00 95 1015.9
20260507064047 3 0 0.0 0.0 0.00 0.20 0.00 95 1016.0
20260507063545 3 0 0.0 0.0 0.00 0.20 0.00 95 1016.1
20260507063052 3 0 0.0 0.0 0.00 0.20 0.00 94 1016.0
20260507062548 3 0 0.0 0.0 0.00 0.20 0.00 94 1016.0
20260507062044 4 0 0.0 0.0 0.00 0.20 0.00 94 1015.9
20260507061552 4 0 0.0 0.0 0.00 0.20 0.00 94 1015.9
20260507061044 4 0 0.0 0.0 0.00 0.20 0.00 94 1016.0
20260507060544 4 0 0.0 0.0 0.00 0.20 0.00 94 1016.0
20260507060058 4 0 0.0 0.0 0.00 0.20 0.00 94 1015.9
20260507055544 4 0 0.0 0.0 0.00 0.38 0.00 94 1015.9
20260507055045 4 0 0.0 0.0 0.00 0.38 0.00 94 1016.0
20260507054609 5 0 0.0 0.0 0.00 0.38 0.00 94 1016.0
20260507054044 5 0 0.0 0.0 0.00 0.38 0.00 94 1015.9
20260507053547 5 0 0.0 0.0 0.00 0.38 0.00 94 1016.0
20260507053059 5 0 0.0 0.0 0.00 0.38 0.00 94 1016.0
20260507052543 5 0 0.0 0.0 0.00 0.38 0.00 94 1015.9
20260507052045 5 0 0.0 0.0 0.00 0.38 0.00 94 1016.0
20260507051555 5 0 0.0 0.0 0.00 0.38 0.00 94 1015.8
20260507051045 5 0 0.0 0.0 0.00 0.38 0.00 93 1015.7
20260507050544 5 0 0.0 0.0 0.00 0.38 0.00 93 1015.6
20260507050054 5 0 0.0 0.0 0.00 0.38 0.00 93 1015.5
20260507045543 5 0 0.0 0.0 0.00 0.69 0.00 93 1015.5
20260507045043 5 0 0.0 0.0 0.00 0.69 0.00 93 1015.5
20260507044556 5 0 0.0 0.0 0.00 0.69 0.00 93 1015.5
20260507044044 5 0 0.0 0.0 0.00 0.69 0.00 93 1015.5
20260507043544 6 0 0.0 0.0 0.00 0.69 0.00 93 1015.6
20260507043047 6 0 0.0 0.0 0.00 0.69 0.00 92 1015.6
20260507042543 6 0 0.0 0.0 0.00 0.69 0.00 92 1015.7
20260507042042 6 0 0.0 0.0 0.00 0.69 0.00 92 1015.6
20260507041600 6 0 0.0 0.0 0.00 0.69 0.00 92 1015.7
20260507041045 6 0 0.0 0.0 0.00 0.69 0.00 91 1015.6
20260507040543 6 0 0.0 0.0 0.00 0.69 0.00 91 1015.6
20260507040054 6 0 0.0 0.0 0.00 0.69 0.00 91 1015.8
20260507035542 6 0 0.0 0.0 0.00 1.32 0.69 90 1015.6
20260507035043 6 0 0.0 0.0 0.00 1.32 0.69 90 1015.7
20260507034551 6 0 0.0 0.0 0.00 1.32 0.69 90 1015.8
20260507034044 6 0 0.0 0.0 0.00 1.32 0.69 89 1015.8
20260507033542 6 0 0.0 0.0 0.00 1.32 0.69 89 1015.7
20260507033053 6 0 0.0 0.0 0.00 1.32 0.69 88 1015.7
20260507032543 6 0 0.0 0.0 0.00 1.32 0.69 88 1015.7
20260507032044 7 0 0.0 0.0 0.00 1.32 0.69 87 1015.6
20260507031548 7 0 0.0 0.0 0.00 1.32 0.69 87 1015.6
20260507031045 7 0 0.0 0.0 0.00 1.32 0.69 86 1015.6
20260507030544 7 0 0.0 0.0 0.00 1.32 0.69 85 1015.6
20260507030046 7 0 0.0 0.0 0.00 1.32 0.69 85 1015.6
20260507025544 7 0 0.0 0.0 0.00 2.49 0.69 84 1015.5
20260507025045 7 0 0.0 0.0 0.00 2.49 0.69 83 1015.3
20260507024554 7 0 0.0 0.0 0.00 2.49 0.69 82 1015.3
20260507024044 7 0 0.0 0.0 0.00 2.49 0.69 81 1015.2
20260507023545 7 0 0.0 0.0 0.00 2.49 0.69 81 1015.1
20260507023051 8 0 0.0 0.0 0.00 2.49 0.69 79 1015.2
20260507022544 8 0 0.0 1.6 0.00 2.49 0.69 78 1015.0
20260507022043 8 0 0.0 1.6 0.00 2.49 0.69 76 1015.0
20260507021604 8 0 0.0 0.0 0.00 2.49 0.69 75 1015.0
20260507021044 8 0 0.0 0.0 0.00 2.49 0.69 73 1015.0
20260507020542 8 0 0.0 0.0 0.00 2.49 0.69 72 1015.0
20260507020108 8 0 0.0 0.0 0.00 2.49 0.69 72 1015.0
20260507015545 9 0 0.0 0.0 0.00 2.95 0.69 71 1015.0
20260507015045 9 0 0.0 0.0 0.00 2.95 0.69 70 1014.9
20260507014619 9 0 0.0 0.0 0.00 2.95 0.69 68 1014.9
20260507014046 9 0 0.0 0.0 0.00 2.95 0.69 67 1014.7
20260507013546 9 0 0.0 0.0 0.00 2.95 0.69 67 1014.9
20260507013101 10 0 0.0 0.0 0.00 2.95 0.69 65 1014.8
20260507012544 10 0 0.0 0.0 0.00 2.95 0.69 64 1014.7
20260507012045 10 0 0.0 0.0 0.00 2.95 0.69 63 1014.7
20260507011558 10 0 0.0 0.0 0.00 2.95 0.69 63 1014.7
20260507011045 10 0 0.0 1.6 0.00 2.95 0.69 62 1014.7
20260507010544 10 0 0.0 1.6 0.00 2.95 0.69 61 1014.7
20260507010052 11 0 0.0 1.6 0.00 2.95 0.69 61 1014.7
20260507005544 11 0 0.0 1.6 0.00 3.48 0.69 61 1014.7
20260507005047 11 0 0.0 1.6 0.00 3.48 0.69 59 1014.4
20260507004552 11 0 0.0 1.6 0.00 3.48 0.69 59 1014.4
20260507004044 11 0 0.0 1.6 0.00 3.48 0.69 60 1014.3
20260507003544 11 0 0.0 1.6 0.00 3.48 0.69 59 1014.3
20260507003050 12 339 0.0 1.6 0.00 3.48 0.69 59 1014.3
20260507002544 12 0 0.0 1.6 0.00 3.48 0.69 58 1014.3
20260507002044 12 0 0.0 1.6 0.00 3.48 0.69 58 1014.3
20260507001602 12 0 0.0 1.6 0.00 3.48 0.69 57 1014.3
20260507001043 12 0 0.0 1.6 0.00 3.48 0.69 57 1014.3
20260507000545 12 0 0.0 1.6 0.00 3.48 0.69 56 1014.3
20260507000122 12 360 0.0 1.6 0.00 3.48 0.69 56 1014.2
20260506235543 13 0 0.0 3.2 0.00 3.84 0.69 56 1014.2
20260506235044 13 0 0.0 4.8 0.00 3.84 0.69 54 1014.1
20260506234613 13 6 0.0 4.8 0.00 3.84 0.69 52 1014.1
20260506234043 13 310 0.0 4.8 0.00 3.84 0.69 52 1014.0
20260506233544 14 1 0.0 6.4 0.00 3.84 0.69 49 1013.9
20260506233052 14 0 1.6 6.4 0.00 3.84 0.69 50 1014.0
20260506232545 15 0 0.0 6.4 0.00 3.84 0.69 50 1014.0
20260506232044 14 266 1.6 8.0 0.00 3.84 0.69 47 1014.0
20260506231552 14 241 1.6 8.0 0.00 3.84 0.69 46 1014.0
20260506231041 14 122 1.6 6.4 0.00 3.84 0.69 47 1014.1
20260506230541 15 360 0.0 4.8 0.00 3.84 0.69 45 1014.1
20260506230100 15 290 1.6 6.4 0.00 3.84 0.69 42 1014.0
20260506225546 15 302 1.6 6.4 0.00 4.55 0.69 40 1014.1
20260506225044 16 257 1.6 6.4 0.00 4.55 0.69 41 1014.0
20260506224551 16 0 0.0 6.4 0.00 4.55 0.69 43 1014.0
20260506224044 16 0 1.6 6.4 0.00 4.55 0.69 42 1014.0
20260506223543 16 235 1.6 6.4 0.00 4.55 0.69 42 1013.9
20260506223100 16 283 1.6 6.4 0.00 4.55 0.69 40 1014.0
20260506222547 16 12 0.0 6.4 0.00 4.55 0.69 44 1014.1
20260506222045 16 269 1.6 6.4 0.00 4.55 0.69 45 1014.2
20260506221559 16 352 0.0 6.4 0.00 4.55 0.69 44 1014.1
20260506221044 16 27 1.6 9.7 0.00 4.55 0.69 45 1014.0
20260506220544 16 216 1.6 9.7 0.00 4.55 0.69 43 1014.1
20260506220052 16 333 1.6 8.0 0.00 4.55 0.69 47 1014.0
20260506215546 16 0 1.6 8.0 0.00 4.83 0.69 45 1013.9
20260506215045 15 0 1.6 6.4 0.00 4.83 0.69 46 1013.8
20260506214549 15 265 1.6 8.0 0.00 4.83 0.69 46 1014.0
20260506214043 15 242 1.6 8.0 0.00 4.83 0.69 45 1014.0
20260506213548 16 0 1.6 9.7 0.00 4.83 0.69 45 1014.1
20260506213056 16 297 1.6 9.7 0.00 4.83 0.69 47 1014.0
20260506212541 15 0 1.6 11.3 0.00 4.83 0.69 45 1014.1
20260506212044 15 53 3.2 11.3 0.00 4.83 0.69 45 1014.0
20260506211554 15 357 1.6 6.4 0.00 4.83 0.69 44 1013.9
20260506211041 15 0 1.6 9.7 0.00 4.83 0.69 42 1014.0
20260506210546 16 49 1.6 9.7 0.00 4.83 0.69 43 1014.0
20260506210051 16 258 1.6 6.4 0.00 4.83 0.69 43 1014.0
20260506205544 16 0 0.0 4.8 0.00 4.88 0.69 43 1014.0
20260506205043 16 0 0.0 4.8 0.00 4.88 0.69 43 1013.9
20260506204551 16 297 1.6 6.4 0.00 4.88 0.69 39 1014.0
20260506204041 16 272 1.6 9.7 0.00 4.88 0.69 38 1014.0
20260506203543 16 326 1.6 9.7 0.00 4.88 0.69 40 1013.9